When you browse on this site, cookies collect data to enhance your experience and personalize the content and advertising you see.
Visit our Privacy Policy to learn more. By continuing to use the site, you agree to this use of cookies and data.
  • In Austria
  • List of Countries
  • For 7 days
  • Water Temperature
  • Weather Map
  • News
  • Weather Widgets
  • user-avatar
    Login

    Hourly Weather Gajsin

    Today, 20 August, Tuesday

    Time Temperature Precipitation Wind Pressure Humidity
    00:00 +21°C° 0 mm 1 mps 747 mmHg 47%
    01:00 +20°C° 0 mm 1 mps 747 mmHg 48%
    02:00 +19°C° 0 mm 2 mps 747 mmHg 49%
    03:00 +19°C° 0 mm 2 mps 748 mmHg 50%
    04:00 +18°C° 0 mm 2 mps 748 mmHg 51%
    05:00 +19°C° 0 mm 1 mps 748 mmHg 53%
    06:00 +21°C° 0 mm 1 mps 748 mmHg 49%
    07:00 +23°C° 0 mm 1 mps 748 mmHg 45%
    08:00 +26°C° 0 mm 1 mps 749 mmHg 41%
    09:00 +28°C° 0 mm 1 mps 749 mmHg 37%
    10:00 +29°C° 0 mm 1 mps 749 mmHg 34%
    11:00 +31°C° 0 mm 1 mps 749 mmHg 30%
    12:00 +31°C° 0 mm 2 mps 749 mmHg 29%
    13:00 +32°C° 0 mm 2 mps 749 mmHg 27%
    14:00 +34°C° 0 mm 2 mps 749 mmHg 26%
    15:00 +32°C° 0 mm 2 mps 749 mmHg 27%
    16:00 +32°C° 0 mm 2 mps 748 mmHg 27%
    17:00 +32°C° 0 mm 2 mps 748 mmHg 28%
    18:00 +30°C° 0 mm 2 mps 748 mmHg 32%
    19:00 +27°C° 0 mm 2 mps 749 mmHg 37%
    20:00 +25°C° 0 mm 2 mps 749 mmHg 41%
    21:00 +24°C° 0 mm 2 mps 749 mmHg 44%
    22:00 +23°C° 0 mm 2 mps 749 mmHg 46%
    23:00 +21°C° 0 mm 2 mps 748 mmHg 49%

    Tomorrow, 21 August, Wednesday

    Time Temperature Precipitation Wind Pressure Humidity
    00:00 +21°C° 0 mm 2 mps 749 mmHg 51%
    01:00 +21°C° 0 mm 1 mps 749 mmHg 53%
    02:00 +21°C° 0 mm 1 mps 749 mmHg 55%
    03:00 +20°C° 0 mm 1 mps 749 mmHg 56%
    04:00 +20°C° 0 mm 1 mps 748 mmHg 58%
    05:00 +20°C° 0 mm 1 mps 748 mmHg 59%
    06:00 +22°C° 0 mm 1 mps 748 mmHg 55%
    07:00 +24°C° 0 mm 2 mps 749 mmHg 51%
    08:00 +26°C° 0 mm 2 mps 749 mmHg 47%
    09:00 +28°C° 0 mm 2 mps 749 mmHg 43%
    10:00 +29°C° 0 mm 2 mps 749 mmHg 38%
    11:00 +31°C° 0 mm 2 mps 749 mmHg 34%
    12:00 +32°C° 0 mm 2 mps 748 mmHg 32%
    13:00 +32°C° 0 mm 2 mps 748 mmHg 30%
    14:00 +34°C° 0 mm 2 mps 748 mmHg 28%
    15:00 +34°C° 0 mm 2 mps 747 mmHg 29%
    16:00 +33°C° 0 mm 3 mps 747 mmHg 29%
    17:00 +33°C° 0 mm 3 mps 747 mmHg 30%
    18:00 +30°C° 0 mm 2 mps 747 mmHg 36%
    19:00 +27°C° 0 mm 2 mps 747 mmHg 42%
    20:00 +25°C° 0 mm 2 mps 747 mmHg 47%
    21:00 +24°C° 0 mm 2 mps 747 mmHg 49%
    22:00 +23°C° 0 mm 2 mps 747 mmHg 50%
    23:00 +23°C° 0 mm 1 mps 747 mmHg 51%

    Day after tomorrow, 22 August, Thursday

    Time Temperature Precipitation Wind Pressure Humidity
    00:00 +22°C° 0 mm 1 mps 747 mmHg 52%
    01:00 +22°C° 0 mm 1 mps 748 mmHg 52%
    02:00 +22°C° 0 mm 1 mps 748 mmHg 52%
    03:00 +20°C° 0 mm 2 mps 748 mmHg 56%
    04:00 +20°C° 0 mm 2 mps 747 mmHg 60%
    05:00 +19°C° 0 mm 3 mps 747 mmHg 64%
    06:00 +20°C° 0 mm 3 mps 748 mmHg 67%
    07:00 +22°C° 0 mm 4 mps 748 mmHg 69%
    08:00 +23°C° 0 mm 5 mps 748 mmHg 72%
    09:00 +25°C° 0 mm 5 mps 749 mmHg 68%
    10:00 +26°C° 0 mm 5 mps 749 mmHg 65%
    11:00 +28°C° 0 mm 6 mps 749 mmHg 61%
    12:00 +28°C° 0 mm 6 mps 749 mmHg 60%
    13:00 +28°C° 0 mm 6 mps 749 mmHg 58%
    14:00 +28°C° 0 mm 6 mps 749 mmHg 57%
    15:00 +28°C° 0 mm 6 mps 749 mmHg 60%
    16:00 +27°C° 0 mm 6 mps 748 mmHg 63%
    17:00 +26°C° 0 mm 6 mps 748 mmHg 66%
    18:00 +24°C° 0 mm 6 mps 749 mmHg 71%
    19:00 +22°C° 0 mm 5 mps 749 mmHg 77%
    20:00 +20°C° 0 mm 5 mps 749 mmHg 83%
    21:00 +20°C° 0 mm 5 mps 749 mmHg 85%
    22:00 +19°C° 0 mm 4 mps 750 mmHg 87%
    23:00 +18°C° 0 mm 4 mps 750 mmHg 88%

    23 August, Friday

    Time Temperature Precipitation Wind Pressure Humidity
    00:00 +18°C° 0 mm 4 mps 750 mmHg 90%
    01:00 +18°C° 0 mm 4 mps 749 mmHg 92%
    02:00 +17°C° 0 mm 3 mps 749 mmHg 94%
    03:00 +17°C° 0 mm 3 mps 749 mmHg 95%
    04:00 +17°C° 0 mm 4 mps 749 mmHg 96%
    05:00 +17°C° 0 mm 4 mps 749 mmHg 96%
    06:00 +18°C° 0 mm 4 mps 749 mmHg 91%
    07:00 +19°C° 0 mm 4 mps 750 mmHg 86%
    08:00 +20°C° 0 mm 4 mps 750 mmHg 80%
    09:00 +22°C° 0 mm 4 mps 750 mmHg 74%
    10:00 +25°C° 0 mm 4 mps 750 mmHg 67%
    11:00 +26°C° 0 mm 4 mps 750 mmHg 60%
    12:00 +27°C° 0 mm 4 mps 750 mmHg 58%
    13:00 +28°C° 0 mm 4 mps 750 mmHg 56%
    14:00 +28°C° 0 mm 4 mps 750 mmHg 54%
    15:00 +28°C° 0 mm 4 mps 750 mmHg 55%
    16:00 +28°C° 0 mm 5 mps 749 mmHg 57%
    17:00 +27°C° 0 mm 5 mps 749 mmHg 58%
    18:00 +25°C° 0 mm 4 mps 750 mmHg 65%
    19:00 +23°C° 0 mm 4 mps 750 mmHg 71%
    20:00 +21°C° 0 mm 3 mps 750 mmHg 77%
    21:00 +20°C° 0 mm 3 mps 750 mmHg 81%
    22:00 +19°C° 0 mm 3 mps 750 mmHg 85%
    23:00 +18°C° 0 mm 3 mps 750 mmHg 88%

    24 August, Saturday

    Time Temperature Precipitation Wind Pressure Humidity
    00:00 +18°C° 0 mm 3 mps 750 mmHg 91%
    01:00 +17°C° 0 mm 3 mps 750 mmHg 93%
    02:00 +17°C° 0 mm 3 mps 750 mmHg 95%
    03:00 +16°C° 0 mm 3 mps 750 mmHg 95%
    04:00 +16°C° 0 mm 3 mps 750 mmHg 96%
    05:00 +16°C° 0 mm 3 mps 750 mmHg 96%
    06:00 +17°C° 0 mm 4 mps 750 mmHg 88%
    07:00 +19°C° 0 mm 4 mps 750 mmHg 80%
    08:00 +20°C° 0 mm 5 mps 750 mmHg 73%
    09:00 +22°C° 0 mm 4 mps 750 mmHg 68%
    10:00 +23°C° 0 mm 4 mps 750 mmHg 62%
    11:00 +26°C° 0 mm 4 mps 750 mmHg 57%
    12:00 +27°C° 0 mm 4 mps 750 mmHg 54%
    13:00 +28°C° 0 mm 3 mps 750 mmHg 51%
    14:00 +29°C° 0 mm 3 mps 750 mmHg 48%
    15:00 +28°C° 0 mm 3 mps 749 mmHg 48%
    16:00 +28°C° 0 mm 3 mps 749 mmHg 48%
    17:00 +28°C° 0 mm 4 mps 749 mmHg 48%
    18:00 +26°C° 0 mm 4 mps 749 mmHg 56%
    19:00 +24°C° 0 mm 3 mps 749 mmHg 64%
    20:00 +21°C° 0 mm 3 mps 749 mmHg 72%
    21:00 +20°C° 0 mm 3 mps 749 mmHg 75%
    22:00 +20°C° 0 mm 3 mps 749 mmHg 77%
    23:00 +19°C° 0 mm 3 mps 749 mmHg 79%

    25 August, Sunday

    Time Temperature Precipitation Wind Pressure Humidity
    00:00 +19°C° 0 mm 3 mps 749 mmHg 80%
    01:00 +18°C° 0 mm 3 mps 749 mmHg 81%
    02:00 +18°C° 0 mm 3 mps 749 mmHg 82%
    03:00 +17°C° 0 mm 3 mps 749 mmHg 85%
    04:00 +17°C° 0 mm 2 mps 748 mmHg 87%
    05:00 +16°C° 0 mm 2 mps 748 mmHg 89%
    06:00 +18°C° 0 mm 3 mps 749 mmHg 80%
    07:00 +20°C° 0 mm 3 mps 749 mmHg 71%
    08:00 +24°C° 0 mm 3 mps 749 mmHg 62%
    09:00 +25°C° 0 mm 3 mps 749 mmHg 56%
    10:00 +27°C° 0 mm 3 mps 749 mmHg 50%
    11:00 +28°C° 0 mm 3 mps 749 mmHg 44%
    12:00 +29°C° 0 mm 3 mps 749 mmHg 40%
    13:00 +30°C° 0 mm 3 mps 749 mmHg 36%
    14:00 +31°C° 0 mm 3 mps 749 mmHg 32%
    15:00 +30°C° 0 mm 4 mps 749 mmHg 31%
    16:00 +30°C° 0 mm 4 mps 749 mmHg 30%
    17:00 +29°C° 0 mm 5 mps 748 mmHg 29%
    18:00 +26°C° 0 mm 4 mps 748 mmHg 35%
    19:00 +23°C° 0 mm 4 mps 749 mmHg 40%
    20:00 +21°C° 0 mm 4 mps 749 mmHg 46%
    21:00 +20°C° 0 mm 4 mps 749 mmHg 48%
    22:00 +19°C° 0 mm 3 mps 749 mmHg 50%
    23:00 +18°C° 0 mm 3 mps 749 mmHg 52%
    Show more